[[{"header":{"parameterUnit":"m.s-1","parameterCategory":1,"la1":30.2991,"la2":30.254,"lo1":-89.0895,"lo2":-89.0444,"dy":0.0017,"dx":0.0017,"nx":28,"ny":28,"refTime":"2023-10-24T03:00:00:Z","depth":0,"parameterNumber":2,"parameterNumberName":"U-component_of_WINDS"},"data":[0,0,0,0,0,0,0,0,0,0,0,0,0,0,0,0,0,0,0,0,0,0,0,0,0,0,0,0,0,0,0,0,0,0,0,0,0,0,0,0,0,0,0,0,0,0,0,0,0,0,0,0,0,0,0,0,0,0,-7.1745,-7.1746,0,-7.1814,-7.1815,-7.1816,-7.1772,-7.1769,-7.1767,-7.1766,-7.183,-7.1834,-7.1837,0,0,0,0,0,0,0,0,0,0,0,0,0,-7.1574,-7.1577,-7.1745,-7.1746,-7.1747,-7.1814,-7.1815,-7.1816,-7.1772,-7.1769,-7.1767,-7.1765,-7.1829,-7.1833,-7.1838,0,0,0,0,0,0,0,0,0,0,0,0,0,-7.1646,-7.1578,-7.1745,-7.1733,-7.1733,-7.1814,-7.1815,-7.1816,-7.1772,-7.1769,-7.1766,-7.1763,-7.1828,-7.1833,-7.1838,-7.1933,0,0,-7.1855,-7.1857,0,0,0,0,0,0,0,0,-7.1642,-7.1652,-7.1734,-7.1734,-7.1734,-7.1781,-7.1778,-7.1855,-7.1773,-7.1757,-7.1765,-7.1762,-7.1816,-7.1822,-7.1841,-7.1936,-7.1938,-7.1855,-7.1858,-7.1861,-7.1862,0,0,0,0,0,0,0,-7.1637,-7.1649,-7.1772,-7.1736,-7.1735,-7.1724,-7.1731,-7.1792,-7.1803,-7.1758,-7.1755,-7.1764,-7.1815,-7.1836,-7.1843,-7.1939,-7.1855,-7.186,-7.1863,-7.1865,-7.2116,-7.212,0,0,0,0,0,0,-7.1633,-7.1645,-7.177,-7.1774,-7.168,-7.1729,-7.1737,-7.1769,-7.1802,-7.1804,-7.1767,-7.1762,-7.1829,-7.1836,-7.1845,-7.1957,-7.1861,-7.1866,-7.1869,-7.2113,-7.2117,-7.2121,0,0,0,0,0,0,-7.163,-7.1645,-7.1767,-7.1709,-7.1724,-7.1736,-7.1772,-7.1772,-7.1793,-7.1809,-7.181,-7.1787,-7.1827,-7.1837,-7.1912,-7.1959,-7.1868,-7.1873,-7.2109,-7.2114,-7.2119,-7.2183,0,0,0,0,0,0,-7.1625,-7.1644,-7.168,-7.171,-7.1727,-7.1834,-7.1775,-7.1776,-7.1803,-7.1797,-7.1827,-7.1829,-7.1825,-7.1904,-7.1917,-7.1965,-7.1877,-7.2105,-7.2111,-7.2117,-7.2177,-7.219,-7.2201,0,0,0,0,0,-7.1619,-7.1693,-7.1682,-7.1697,-7.1773,-7.1837,-7.1846,-7.1841,-7.1807,-7.1843,-7.1854,-7.1828,-7.1953,-7.1912,-7.1927,-7.1976,-7.2101,-7.2109,-7.2117,-7.2171,-7.2187,-7.2201,0,0,0,0,0,0,-7.1665,-7.1697,-7.1684,-7.1771,-7.1802,-7.1829,-7.1874,-7.1858,-7.1897,-7.189,-7.1881,-7.1888,-7.1966,-7.1979,-7.1933,-7.2071,-7.2022,-7.2033,-7.2058,-7.2073,-7.2085,-7.2078,-7.1882,0,0,0,0,0,-7.1686,-7.1737,-7.1762,-7.1836,-7.1852,-7.1861,-7.1889,-7.1883,-7.1914,-7.1925,-7.1941,-7.1971,-7.2017,-7.2046,-7.2089,-7.2181,-7.2186,-7.2222,-7.2235,-7.2244,-7.2252,-7.2302,-7.2318,-7.2146,-7.2146,-7.2146,0,0,-7.1727,-7.1752,-7.1783,-7.1846,-7.1869,-7.192,-7.1872,-7.1928,-7.1966,-7.1933,-7.2004,-7.2019,-7.2051,-7.2135,-7.2172,-7.2148,-7.2303,-7.2254,-7.2262,-7.2265,-7.2312,-7.2328,-7.2342,-7.2151,-7.215,-7.2149,0,0,-7.183,-7.1854,-7.1919,-7.1945,-7.1982,-7.1988,-7.2004,-7.2036,-7.2044,-7.2117,-7.2094,-7.214,-7.2219,-7.2243,-7.2265,-7.2384,-7.2362,-7.2399,-7.246,-7.2509,-7.2522,-7.2534,-7.2574,-7.2589,-7.2408,-7.2408,-7.2408,0,-7.1876,-7.1954,-7.1954,-7.2013,-7.2041,-7.2019,-7.2084,-7.2108,-7.2157,-7.2176,-7.215,-7.2251,-7.2271,-7.236,-7.239,-7.241,-7.2427,-7.2392,-7.2521,-7.2533,-7.2544,-7.2582,-7.2598,-7.2412,-7.2412,-7.2411,-7.2411,0,-7.2009,-7.2065,-7.2113,-7.2163,-7.2197,-7.2259,-7.2267,-7.2302,-7.2296,-7.2305,-7.238,-7.2405,-7.2453,-7.2475,-7.2468,-7.2564,-7.2548,-7.2522,-7.2471,-7.2564,-7.26,-7.2615,-7.2418,-7.2417,-7.2415,-7.2414,0,0,-7.2135,-7.219,-7.2207,-7.223,-7.2273,-7.2315,-7.2377,-7.2427,-7.2457,-7.2493,-7.2543,-7.2614,-7.2591,-7.2617,-7.2614,-7.2657,-7.2749,-7.2625,-7.2626,-7.2645,-7.2855,-7.2872,-7.2889,-7.2737,-7.274,-7.2742,-7.2852,0,-7.2238,-7.2347,-7.2351,-7.2451,-7.2501,-7.2485,-7.2539,-7.2571,-7.2583,-7.2627,-7.264,-7.269,-7.2657,-7.2672,-7.2715,-7.2728,-7.279,-7.2721,-7.2781,-7.2783,-7.2769,-7.2908,-7.2925,-7.3027,-7.2866,-7.2868,-7.287,0,-7.237,-7.2414,-7.252,-7.2558,-7.2579,-7.2628,-7.2676,-7.2719,-7.2756,-7.2762,-7.2794,-7.2786,-7.2849,-7.2802,-7.2888,-7.2841,-7.2867,-7.2878,-7.2882,-7.2883,-7.2829,-7.291,-7.306,-7.3073,-7.2893,-7.2891,-7.2889,0,-7.2449,-7.2535,-7.2609,-7.263,-7.2677,-7.2712,-7.2733,-7.2767,-7.2798,-7.284,-7.286,-7.2909,-7.2934,-7.2972,-7.2976,-7.2942,-7.3063,-7.3016,-7.3068,-7.3068,-7.3089,-7.3087,-7.3241,-7.3113,-7.3113,-7.3113,-7.3113,0,-7.2561,-7.2625,-7.2645,-7.269,-7.2763,-7.2768,-7.2839,-7.2858,-7.2889,-7.2937,-7.2927,-7.2972,-7.2977,-7.3024,-7.3029,-7.3099,-7.3112,-7.3117,-7.3116,-7.3115,-7.3114,-7.3128,-7.312,-7.3117,-7.3116,-7.3115,-7.3115,0,-7.2657,-7.2674,-7.2754,-7.2794,-7.2806,-7.2857,-7.2891,-7.2934,-7.2948,-7.3009,-7.3024,-7.3045,-7.31,-7.311,-7.3174,-7.3178,-7.3261,-7.3255,-7.3249,-7.3246,-7.3297,-7.3291,-7.3462,-7.3484,-7.3345,-7.3346,-7.3348,0,-7.2725,-7.2775,-7.2822,-7.2855,-7.2879,-7.2931,-7.2964,-7.2974,-7.3008,-7.3056,-7.3094,-7.3149,-7.3192,-7.3281,-7.33,-7.335,-7.3343,-7.3401,-7.335,-7.3348,-7.3341,-7.3336,-7.334,-7.3408,-7.3409,-7.3411,-7.3412,0,-7.2843,-7.285,-7.2899,-7.2952,-7.2993,-7.3034,-7.3074,-7.3101,-7.3116,-7.3155,-7.3213,-7.3247,-7.3316,-7.3369,-7.342,-7.344,-7.3428,-7.3429,-7.3443,-7.3439,-7.3433,-7.3435,-7.3271,-7.3423,-7.3422,-7.3421,-7.342,-7.342,-7.2925,-7.2969,-7.301,-7.3066,-7.3098,-7.3137,-7.318,-7.3201,-7.325,-7.3307,-7.3311,-7.3373,-7.3412,-7.3479,-7.3504,-7.3552,-7.3534,-7.3555,-7.3559,-7.3563,-7.3567,-7.343,-7.3562,-7.3562,-7.3561,-7.3561,-7.3561,0,-7.304,-7.3067,-7.3119,-7.3177,-7.3221,-7.3211,-7.3256,-7.3292,-7.3349,-7.3387,-7.3432,-7.3499,-7.3553,-7.358,-7.3633,-7.3667,-7.3662,-7.368,-7.3675,-7.368,-7.3581,-7.3562,-7.3683,-7.3683,-7.3682,-7.3682,-7.3682,-7.3682,-7.3104,-7.3179,-7.3192,-7.3282,-7.3309,-7.3372,-7.3399,-7.3434,-7.3465,-7.3541,-7.3587,-7.3606,-7.364,-7.3696,-7.3745,-7.3752,-7.377,-7.379,-7.3793,-7.3699,-7.3687,-7.3675,-7.3657,-7.3795,-7.3795,-7.3887,-7.3888,-7.3889]},{"header":{"parameterUnit":"m.s-1","parameterCategory":1,"la1":30.2991,"la2":30.254,"lo1":-89.0895,"lo2":-89.0444,"dy":0.0017,"dx":0.0017,"nx":28,"ny":28,"refTime":"2023-10-24T03:00:00:Z","depth":0,"parameterNumber":3,"parameterNumberName":"V-component_of_WINDS"},"data":[0,0,0,0,0,0,0,0,0,0,0,0,0,0,0,0,0,0,0,0,0,0,0,0,0,0,0,0,0,0,0,0,0,0,0,0,0,0,0,0,0,0,0,0,0,0,0,0,0,0,0,0,0,0,0,0,0,0,2.3437,2.3439,0,2.3597,2.3599,2.3601,2.3724,2.3725,2.3727,2.3728,2.3886,2.3889,2.3892,0,0,0,0,0,0,0,0,0,0,0,0,0,2.3237,2.324,2.3437,2.3439,2.3441,2.3597,2.3599,2.3601,2.3724,2.3725,2.3727,2.3728,2.3885,2.3889,2.3893,0,0,0,0,0,0,0,0,0,0,0,0,0,2.3353,2.3241,2.3437,2.3521,2.3531,2.3596,2.3599,2.3602,2.3724,2.3725,2.3727,2.3729,2.3884,2.3889,2.3893,2.3886,0,0,2.3907,2.3909,0,0,0,0,0,0,0,0,2.3346,2.336,2.3507,2.3516,2.3526,2.3643,2.3587,2.3697,2.3723,2.365,2.3728,2.373,2.3803,2.3815,2.3841,2.3894,2.3901,2.3908,2.3911,2.3913,2.3914,0,0,0,0,0,0,0,2.3338,2.3354,2.35,2.3509,2.3521,2.3551,2.3569,2.3608,2.3715,2.3657,2.3666,2.3684,2.3809,2.3836,2.3845,2.3903,2.3908,2.3912,2.3915,2.3917,2.3963,2.3962,0,0,0,0,0,0,2.3317,2.3347,2.3495,2.3505,2.3439,2.3553,2.3574,2.3603,2.3715,2.3733,2.3682,2.3689,2.3827,2.384,2.3851,2.3854,2.3913,2.3917,2.392,2.3965,2.3963,2.3961,0,0,0,0,0,0,2.3313,2.3329,2.3489,2.3429,2.3451,2.3555,2.3587,2.3606,2.3633,2.3734,2.3753,2.369,2.3829,2.3845,2.3878,2.3861,2.3919,2.3923,2.3967,2.3964,2.3962,2.3857,0,0,0,0,0,0,2.3306,2.3327,2.3325,2.3428,2.3454,2.3513,2.3586,2.3607,2.3641,2.3652,2.3746,2.3764,2.3832,2.3871,2.3883,2.3869,2.3927,2.3969,2.3966,2.3963,2.3863,2.3852,2.3842,0,0,0,0,0,2.3299,2.3287,2.3325,2.3342,2.3454,2.3512,2.3527,2.3606,2.3639,2.3639,2.3705,2.3761,2.3861,2.3873,2.3888,2.3875,2.397,2.3967,2.3963,2.3867,2.3854,2.3842,0,0,0,0,0,0,2.3178,2.3302,2.3345,2.3366,2.3428,2.3532,2.3534,2.3589,2.3641,2.3648,2.3743,2.3764,2.3788,2.3835,2.3846,2.3877,2.3923,2.3922,2.3845,2.3833,2.3823,2.3812,2.3931,0,0,0,0,0,2.3154,2.3191,2.3297,2.3306,2.3335,2.3429,2.3457,2.3514,2.358,2.3606,2.3674,2.3736,2.3782,2.381,2.3857,2.387,2.3894,2.3869,2.3859,2.385,2.3848,2.3862,2.3853,2.395,2.395,2.395,0,0,2.3104,2.3177,2.3194,2.3284,2.3338,2.3375,2.345,2.3484,2.3513,2.3611,2.3649,2.37,2.3776,2.38,2.3814,2.3839,2.3827,2.3845,2.3837,2.3841,2.3858,2.3848,2.384,2.3947,2.3948,2.3948,0,0,2.3034,2.3091,2.3107,2.3161,2.3244,2.3307,2.3311,2.3408,2.3448,2.3487,2.3563,2.3597,2.3673,2.3725,2.3762,2.3715,2.377,2.3727,2.3674,2.3687,2.3679,2.3673,2.3659,2.3653,2.3725,2.3725,2.3725,0,2.2962,2.3021,2.3108,2.314,2.3178,2.3272,2.3289,2.3337,2.3429,2.3453,2.3482,2.3583,2.3639,2.3679,2.3668,2.3693,2.3702,2.3717,2.3673,2.3668,2.3663,2.3651,2.3646,2.372,2.372,2.3721,2.3721,0,2.293,2.2969,2.2972,2.3063,2.3101,2.3125,2.3217,2.3245,2.3299,2.3359,2.34,2.3472,2.3538,2.3551,2.3602,2.3599,2.3613,2.3655,2.3705,2.3647,2.3638,2.3634,2.3712,2.3714,2.3716,2.3717,0,0,2.2785,2.2927,2.2927,2.2971,2.3071,2.3103,2.3132,2.3199,2.3223,2.3284,2.3312,2.3377,2.3419,2.346,2.3518,2.3529,2.3492,2.3571,2.3575,2.3556,2.3496,2.3465,2.3458,2.3528,2.3528,2.3527,2.3491,0,2.2732,2.2792,2.2873,2.2905,2.2945,2.3036,2.3062,2.3126,2.3183,2.3225,2.3289,2.3335,2.3385,2.3411,2.3425,2.3493,2.3481,2.3496,2.3556,2.3557,2.3536,2.3452,2.3418,2.338,2.3487,2.3486,2.3486,0,2.2678,2.2738,2.2775,2.2875,2.2895,2.2917,2.2987,2.3025,2.31,2.3142,2.319,2.3254,2.3291,2.3334,2.3387,2.3396,2.3425,2.3462,2.3463,2.3473,2.3519,2.3462,2.3369,2.3364,2.348,2.3481,2.3481,0,2.2573,2.2662,2.2698,2.2732,2.2849,2.2863,2.2912,2.2989,2.3025,2.3086,2.3111,2.3174,2.3209,2.3256,2.3336,2.336,2.3381,2.3431,2.3418,2.3416,2.3419,2.3418,2.3332,2.3434,2.3434,2.3434,2.3435,0,2.2506,2.2526,2.2653,2.2674,2.27,2.2793,2.2815,2.2873,2.2941,2.2976,2.3057,2.3088,2.3191,2.3234,2.3297,2.3333,2.3347,2.3383,2.3399,2.3377,2.3372,2.3398,2.3404,2.3433,2.3433,2.3434,2.3434,0,2.2394,2.2479,2.2524,2.2632,2.266,2.2674,2.2767,2.2792,2.2856,2.2899,2.2914,2.3014,2.3069,2.3154,2.3233,2.3276,2.3302,2.3328,2.3277,2.3288,2.3272,2.3273,2.3201,2.3198,2.3299,2.3297,2.3297,0,2.2346,2.2364,2.2476,2.2506,2.2553,2.26,2.2639,2.2732,2.2769,2.2858,2.2872,2.2935,2.299,2.3074,2.3153,2.3215,2.3245,2.3216,2.3255,2.3233,2.3248,2.3247,2.3251,2.3206,2.3205,2.3204,2.3203,0,2.2255,2.2297,2.235,2.2419,2.2464,2.2522,2.2584,2.2604,2.2711,2.2748,2.2807,2.285,2.2934,2.2995,2.3069,2.312,2.3179,2.319,2.3191,2.3168,2.314,2.3158,2.3255,2.3191,2.3192,2.3193,2.3194,2.3194,2.2176,2.2197,2.228,2.2338,2.2395,2.2452,2.2482,2.2551,2.2603,2.268,2.2731,2.2788,2.2866,2.2972,2.302,2.3066,2.3091,2.3091,2.3092,2.3091,2.3084,2.3131,2.3079,2.3079,2.308,2.308,2.3081,0,2.2091,2.215,2.2202,2.2288,2.2334,2.2388,2.246,2.2495,2.2544,2.2613,2.2666,2.2736,2.2797,2.2882,2.295,2.297,2.3,2.2985,2.2985,2.2997,2.3056,2.305,2.2961,2.2961,2.2961,2.2961,2.2961,2.2961,2.2052,2.2093,2.2146,2.2216,2.2275,2.2333,2.237,2.2424,2.248,2.2554,2.2606,2.2662,2.2739,2.2813,2.2872,2.2896,2.2917,2.2895,2.2927,2.2981,2.2992,2.3002,2.2997,2.2898,2.2898,2.2864,2.2864,2.2864]}]]